OneWeb SL0295

operational
NORAD ID: 49084 Int'l Des: 2021-075 Owner: ONEWEBN Country: UK Constellation: oneweb
LEOCIRCULARPOLARONEWEB_TYPE

Über OneWeb SL0295

Beschreibung wird geladen...

Live-Position

3D-Globus wird geladen...

Nächste Überflüge

Höhenverlauf

Altitude vs Time

uPlot chart will show altitude changes over time

Zweizeiliger Elementsatz

1 49084U 21075K 25258.14693925 .00000054 00000-0 10565-3 0 9990
2 49084 87.9049 60.5876 0002054 98.3170 261.8195 13.17648397197373
Epoch: 15. Sept. 2025 • Age: 12 hours

Aktueller Status

Höhe 1198.4 km
Geschwindigkeit 7.26 km/s
Subsatellitenpunkt 40.49°N, 16.37°E
Startdatum 21. Aug. 2021
Alter 4 years
Typ internet

Technische Details

Klassifizierung Payload
Masse 148.00 kg
Trockenmasse 140.00 kg
Gesamtmasse 148.00 kg
Länge 1.30 m
Durchmesser 1.00 m
Spannweite 5.00 m
Form Trapezoid+2 pan
Hersteller ONEWUS
Bus-Typ ARROW
Phasenstatus In Orbit
Besitzer/Staat ONEWEBN/UK

Große Konstellationen

Loading constellations...